Tracking 19832 objects as of 24-Aug-2019
HD Live streaming from Space Station
objects crossing your sky now

TJS-3

Track TJS-3 now!
TJS-3 is classified as:


NORAD ID: 43874
Int'l Code: 2018-110A
Perigee: 35,771.2 km
Apogee: 35,815.8 km
Inclination: 0.1 °
Period: 1,436.1 minutes
Semi major axis: 42164 km
RCS: Unknown
Launch date: December 24, 2018
Source: People's Republic of China (PRC)
Launch site: Xichang Space Center, China (XSC)
aabbcc
Your satellite tracking list
Your tracking list is empty




NASA's NSSDC Master Catalog

Two Line Element Set (TLE):
1 43874U 18110A   19236.77209675 -.00000002  00000-0  00000+0 0  9993
2 43874   0.1061 282.0540 0005292 284.4029 217.2315  1.00272674  2534
Source of the keplerian elements: AFSPC